Regional Weather Roundup
Issued by NWS

Home | Current Version | Previous Version | Graphics & Text | Print | Product List | Glossary On
Versions: 1 2 3 4 5 6 7 8 9 10 11 12 13 14 15 16 17 18 19 20 21 22 23 24 25 26 27 28 29 30 31 32 33 34 35 36 37 38 39 40 41 42 43 44 45 46 47 48 49 50
000
ASUS43 KBIS 010610
RWRND

NORTH DAKOTA REGIONAL WEATHER ROUNDUP
NATIONAL WEATHER SERVICE BISMARCK ND
100 AM CDT MON SEP 01 2014

NOTE: "FAIR" INDICATES FEW OR NO CLOUDS BELOW 12,000 FEET WITH NO
SIGNIFICANT WEATHER AND/OR OBSTRUCTIONS TO VISIBILITY.


NDZ001>003-009>011-017-010700-
NORTHWEST NORTH DAKOTA

CITY           SKY/WX    TMP DP  RH WIND       PRES   REMARKS
WILLISTON      MOCLDY    53  51  93 NW7       29.77R
6HR MIN TEMP:  52; 6HR MAX TEMP:  64;

MINOT          FAIR      55  52  89 SW8       29.72R
MINOT AFB      FAIR      52  52  99 W7        29.72R
$$

NDZ018>021-031>035-040>046-010700-
SOUTHWEST NORTH DAKOTA

CITY           SKY/WX    TMP DP  RH WIND       PRES   REMARKS
BISMARCK       MOCLDY    59  57  93 SW3       29.74F
6HR MIN TEMP:  58; 6HR MAX TEMP:  74; 6HR PCP:  0.10;

DICKINSON      CLEAR     52  48  86 W8        29.78S
GARRISON         N/A     54  51  90 W5        29.73R
6HR MIN TEMP:  53; 6HR MAX TEMP:  72; 6HR PCP:  0.01;

HETTINGER ARPT CLEAR     50  46  86 NW5       29.83R
$$

NDZ004>008-012>016-024-026-027-054-010700-
NORTHEAST NORTH DAKOTA

CITY           SKY/WX    TMP DP  RH WIND       PRES   REMARKS
GRAND FORKS    FAIR      55  54  96 W7        29.66R
GRND FRKS AFB  FAIR      54  54  99 NW6       29.67R
DEVILS LAKE    FAIR      54  48  82 NW3       29.70R
$$

NDZ022-023-025-028>030-036>039-047>053-010700-
SOUTHEAST NORTH DAKOTA

CITY           SKY/WX    TMP DP  RH WIND       PRES   REMARKS
FARGO          FAIR      58  55  90 W6        29.65F
6HR MIN TEMP:  57; 6HR MAX TEMP:  73;

JAMESTOWN      FAIR      56  53  90 NW7       29.71S
$$




USA.gov is the U.S. government's official web portal to all federal, state and local government web resources and services.